sat.trackr.live / text

‹ back to catalog

STARLINK-32721

NORAD 62438 · 2024-251G

PAYLOAD ACTIVE UNKNOWN

§ Identity

Operator
Country
US
Launch date
2024-12-29
Launch site
AFWTR
Launch vehicle
Mass (kg)
RCS (m²)

Purposes: comms

External: N2YO · Heavens-Above · Gunter

§ Orbital elements

Epoch: 2026-05-24T19:17:27.062016Z

Period
94.10 min
Inclination
53.1609°
Eccentricity
0.0001305
Mean motion
15.30217298 rev/d
Perigee alt
474.3 km
Apogee alt
476.1 km
Semi-major
6,853.3 km
B*
5.6213e-4
RAAN
341.6302°
Arg perigee
68.1774°
Mean anomaly
291.9365°
Rev number
7,954

§ Raw data

STARLINK-327211 62438U 24251G   26144.80378544  .00016335  00000+0  56213-3 0  99902 62438  53.1609 341.6302 0001305  68.1774 291.9365 15.30217298 79548

JSON: /api/v1/satellites/62438 · /tle

For live sub-satellite position, see the globe view (requires WebGL).

§ Visibility from observer

Set your observer location to see the next 7 days of passes ≥ 10°. The values pass through the URL so the page stays shareable.

No JS? Fill the form by hand. The geolocation button needs JavaScript.